TimeCST,TemperatureF,Dew PointF,Humidity,Sea Level PressureIn,VisibilityMPH,Wind Direction,Wind SpeedMPH,Gust SpeedMPH,PrecipitationIn,Events,Conditions,WindDirDegrees,DateUTC
12:15 AM,74.5,68.0,80,29.90,10.0,SSE,20.7,25.3,N/A,,Overcast,160,2013-01-29 06:15:00
12:35 AM,74.5,67.6,79,29.89,10.0,South,18.4,26.5,N/A,,Overcast,170,2013-01-29 06:35:00
12:55 AM,74.5,67.8,80,29.88,10.0,SSE,17.3,25.3,N/A,,Overcast,160,2013-01-29 06:55:00
1:35 AM,73.6,67.6,82,29.86,10.0,SSE,16.1,28.8,N/A,,Mostly Cloudy,160,2013-01-29 07:35:00
1:55 AM,73.8,67.6,81,29.85,10.0,SSE,21.9,26.5,N/A,,Overcast,160,2013-01-29 07:55:00
2:15 AM,74.3,67.5,79,29.84,10.0,SSE,20.7,31.1,N/A,,Overcast,160,2013-01-29 08:15:00
2:35 AM,73.9,67.5,80,29.83,10.0,South,21.9,29.9,N/A,,Overcast,170,2013-01-29 08:35:00
2:55 AM,73.8,67.3,80,29.83,10.0,South,19.6,28.8,N/A,,Overcast,170,2013-01-29 08:55:00
3:15 AM,73.4,67.3,81,29.82,10.0,SSE,19.6,27.6,N/A,,Overcast,160,2013-01-29 09:15:00
3:35 AM,72.7,67.1,83,29.81,10.0,South,21.9,27.6,N/A,,Mostly Cloudy,170,2013-01-29 09:35:00
3:55 AM,73.0,67.1,82,29.81,10.0,South,19.6,27.6,N/A,,Mostly Cloudy,170,2013-01-29 09:55:00
4:15 AM,73.4,67.3,81,29.82,10.0,South,17.3,29.9,N/A,,Overcast,170,2013-01-29 10:15:00
4:35 AM,73.4,67.3,81,29.82,10.0,South,19.6,31.1,N/A,,Overcast,170,2013-01-29 10:35:00
4:55 AM,72.9,67.1,82,29.82,10.0,South,18.4,26.5,N/A,,Overcast,170,2013-01-29 10:55:00
5:15 AM,73.0,67.1,82,29.82,10.0,South,23.0,28.8,N/A,,Overcast,180,2013-01-29 11:15:00
5:35 AM,72.9,67.1,82,29.80,10.0,South,21.9,29.9,N/A,,Overcast,170,2013-01-29 11:35:00
5:55 AM,72.5,66.9,83,29.80,10.0,South,18.4,27.6,N/A,,Overcast,170,2013-01-29 11:55:00
6:15 AM,72.5,66.7,82,29.80,10.0,South,19.6,27.6,N/A,,Mostly Cloudy,170,2013-01-29 12:15:00
6:35 AM,72.3,66.6,82,29.79,10.0,SSE,21.9,28.8,N/A,,Scattered Clouds,160,2013-01-29 12:35:00
6:55 AM,72.5,66.4,81,29.80,10.0,South,17.3,29.9,N/A,,Scattered Clouds,170,2013-01-29 12:55:00
7:15 AM,72.5,66.4,81,29.82,10.0,South,13.8,24.2,N/A,,Mostly Cloudy,180,2013-01-29 13:15:00
7:55 AM,72.7,67.1,83,29.81,7.0,South,17.3,24.2,N/A,,Overcast,170,2013-01-29 13:55:00
8:35 AM,73.6,67.1,80,29.80,10.0,South,18.4,27.6,N/A,,Overcast,170,2013-01-29 14:35:00
9:15 AM,75.9,67.1,74,29.80,10.0,South,23.0,27.6,N/A,,Overcast,170,2013-01-29 15:15:00
9:35 AM,77.0,66.7,70,29.80,10.0,South,20.7,33.4,N/A,,Overcast,180,2013-01-29 15:35:00
9:55 AM,77.9,66.7,68,29.80,10.0,South,20.7,35.7,N/A,,Overcast,190,2013-01-29 15:55:00
10:15 AM,79.7,66.4,64,29.80,10.0,South,19.6,38.0,N/A,,Mostly Cloudy,190,2013-01-29 16:15:00
10:35 AM,80.1,65.5,61,29.80,10.0,South,21.9,32.2,N/A,,Mostly Cloudy,190,2013-01-29 16:35:00
10:55 AM,81.3,65.3,58,29.79,10.0,South,24.2,38.0,N/A,,Scattered Clouds,180,2013-01-29 16:55:00
11:15 AM,83.3,65.1,54,29.78,10.0,South,23.0,32.2,N/A,,Scattered Clouds,190,2013-01-29 17:15:00
11:35 AM,83.5,64.4,52,29.78,7.0,South,24.2,33.4,N/A,,Scattered Clouds,180,2013-01-29 17:35:00
11:55 AM,84.4,64.2,51,29.77,7.0,SSW,19.6,29.9,N/A,,Clear,200,2013-01-29 17:55:00
12:15 PM,86.5,64.6,48,29.76,7.0,SSW,15.0,27.6,N/A,,Clear,200,2013-01-29 18:15:00
12:35 PM,86.7,63.3,45,29.74,10.0,SSW,18.4,26.5,N/A,,Clear,200,2013-01-29 18:35:00
12:55 PM,88.0,63.5,44,29.72,10.0,South,19.6,29.9,N/A,,Clear,180,2013-01-29 18:55:00
1:15 PM,88.7,63.0,42,29.69,7.0,South,20.7,31.1,N/A,,Clear,180,2013-01-29 19:15:00
1:35 PM,89.4,62.8,41,29.68,10.0,South,23.0,28.8,N/A,,Clear,190,2013-01-29 19:35:00
1:55 PM,89.8,61.9,39,29.66,10.0,South,19.6,27.6,N/A,,Clear,180,2013-01-29 19:55:00
2:15 PM,90.1,61.2,38,29.65,10.0,South,17.3,28.8,N/A,,Clear,180,2013-01-29 20:15:00
2:35 PM,90.3,61.0,37,29.64,10.0,South,13.8,26.5,N/A,,Clear,180,2013-01-29 20:35:00
2:55 PM,90.0,61.2,38,29.63,10.0,South,15.0,21.9,N/A,,Clear,180,2013-01-29 20:55:00
3:15 PM,88.9,64.4,44,29.64,10.0,SSE,18.4,23.0,N/A,,Clear,150,2013-01-29 21:15:00
3:35 PM,84.9,66.0,53,29.63,10.0,SSE,16.1,26.5,N/A,,Clear,150,2013-01-29 21:35:00
3:55 PM,84.0,65.7,54,29.63,10.0,SSE,18.4,25.3,N/A,,Clear,150,2013-01-29 21:55:00
4:15 PM,82.9,65.8,56,29.63,10.0,SSE,13.8,21.9,N/A,,Clear,150,2013-01-29 22:15:00
4:35 PM,82.4,66.2,58,29.63,10.0,SSE,13.8,21.9,N/A,,Clear,160,2013-01-29 22:35:00
4:55 PM,82.2,66.2,58,29.64,7.0,SSE,13.8,24.2,N/A,,Clear,160,2013-01-29 22:55:00
5:15 PM,80.6,66.2,61,29.64,7.0,SSE,16.1,21.9,N/A,,Clear,150,2013-01-29 23:15:00
5:35 PM,79.5,66.4,64,29.64,10.0,SSE,13.8,21.9,N/A,,Clear,160,2013-01-29 23:35:00
5:55 PM,78.3,66.4,67,29.65,7.0,SSE,16.1,-,N/A,,Clear,160,2013-01-29 23:55:00
6:15 PM,77.5,66.6,69,29.66,10.0,SSE,12.7,-,N/A,,Clear,160,2013-01-30 00:15:00
6:35 PM,77.0,66.9,71,29.65,10.0,SSE,13.8,20.7,N/A,,Clear,160,2013-01-30 00:35:00
6:55 PM,76.1,67.1,74,29.64,10.0,SSE,19.6,25.3,N/A,,Clear,160,2013-01-30 00:55:00
7:15 PM,75.6,67.5,76,29.65,10.0,South,18.4,26.5,N/A,,Clear,170,2013-01-30 01:15:00
7:35 PM,75.2,67.5,77,29.65,10.0,South,21.9,27.6,N/A,,Clear,170,2013-01-30 01:35:00
7:55 PM,74.8,67.3,77,29.66,10.0,South,18.4,25.3,N/A,,Clear,170,2013-01-30 01:55:00
8:15 PM,74.3,67.5,79,29.67,10.0,South,15.0,24.2,N/A,,Clear,170,2013-01-30 02:15:00
8:35 PM,74.3,67.5,79,29.68,7.0,South,15.0,21.9,N/A,,Clear,170,2013-01-30 02:35:00
8:55 PM,73.9,67.6,81,29.68,7.0,South,12.7,23.0,N/A,,Clear,170,2013-01-30 02:55:00
9:15 PM,73.9,67.6,81,29.68,7.0,South,16.1,19.6,N/A,,Clear,170,2013-01-30 03:15:00
9:35 PM,73.9,67.5,80,29.68,7.0,South,16.1,23.0,N/A,,Clear,180,2013-01-30 03:35:00
10:15 PM,73.8,67.6,81,29.68,10.0,South,12.7,24.2,N/A,,Clear,180,2013-01-30 04:15:00
10:55 PM,73.4,67.5,82,29.67,7.0,South,13.8,-,N/A,,Clear,170,2013-01-30 04:55:00
11:15 PM,73.0,67.3,82,29.67,7.0,South,13.8,-,N/A,,Clear,170,2013-01-30 05:15:00
11:35 PM,72.5,67.3,84,29.66,7.0,South,12.7,17.3,N/A,,Clear,170,2013-01-30 05:35:00
11:55 PM,72.5,67.3,84,29.66,7.0,South,12.7,-,N/A,,Clear,170,2013-01-30 05:55:00